TimePST,TemperatureF,Dew PointF,Humidity,Sea Level PressureIn,VisibilityMPH,Wind Direction,Wind SpeedMPH,Gust SpeedMPH,PrecipitationIn,Events,Conditions,WindDirDegrees,DateUTC
12:15 AM,35.6,24.8,65,29.96,10.0,SE,11.5,-,N/A,,Overcast,130,2013-01-23 08:15:00
12:35 AM,35.6,24.8,65,29.93,10.0,East,4.6,-,N/A,,Overcast,100,2013-01-23 08:35:00
12:55 AM,35.6,24.8,65,29.98,10.0,SE,10.4,-,N/A,,Overcast,140,2013-01-23 08:55:00
1:15 AM,35.6,23.0,60,29.97,10.0,SE,10.4,-,N/A,,Overcast,130,2013-01-23 09:15:00
1:35 AM,35.6,23.0,60,29.96,10.0,SE,10.4,-,N/A,,Overcast,140,2013-01-23 09:35:00
1:55 AM,35.6,23.0,60,29.97,10.0,SE,6.9,-,N/A,,Overcast,130,2013-01-23 09:55:00
2:15 AM,35.6,23.0,60,29.98,10.0,SE,8.1,-,N/A,,Overcast,130,2013-01-23 10:15:00
2:35 AM,35.6,23.0,60,29.98,10.0,SSE,9.2,-,N/A,,Overcast,150,2013-01-23 10:35:00
2:55 AM,35.6,23.0,60,29.98,10.0,SSE,10.4,16.1,N/A,,Overcast,150,2013-01-23 10:55:00
3:15 AM,35.6,23.0,60,29.96,10.0,South,6.9,-,N/A,,Overcast,170,2013-01-23 11:15:00
3:35 AM,35.6,23.0,60,29.93,10.0,SE,9.2,-,N/A,,Overcast,140,2013-01-23 11:35:00
3:55 AM,35.6,23.0,60,29.95,10.0,SSE,9.2,-,N/A,,Overcast,160,2013-01-23 11:55:00
4:15 AM,35.6,23.0,60,29.95,10.0,SE,8.1,16.1,N/A,,Overcast,140,2013-01-23 12:15:00
4:35 AM,35.6,24.8,65,29.95,10.0,SSE,6.9,-,N/A,,Overcast,150,2013-01-23 12:35:00
4:55 AM,35.6,23.0,60,29.91,10.0,East,6.9,-,N/A,,Overcast,90,2013-01-23 12:55:00
5:15 AM,35.6,23.0,60,29.94,10.0,South,10.4,-,N/A,,Overcast,190,2013-01-23 13:15:00
5:35 AM,33.8,23.0,65,29.96,10.0,SSE,5.8,-,N/A,,Overcast,150,2013-01-23 13:35:00
5:55 AM,35.6,23.0,60,29.95,10.0,SE,5.8,-,N/A,,Overcast,140,2013-01-23 13:55:00
6:15 AM,35.6,23.0,60,29.94,10.0,Calm,Calm,-,N/A,,Overcast,0,2013-01-23 14:15:00
6:35 AM,35.6,23.0,60,29.92,10.0,SSW,4.6,-,N/A,,Overcast,200,2013-01-23 14:35:00
6:55 AM,35.6,24.8,65,29.93,10.0,SSE,4.6,-,N/A,,Overcast,160,2013-01-23 14:55:00
7:15 AM,35.6,24.8,65,29.92,10.0,SE,4.6,-,N/A,,Overcast,140,2013-01-23 15:15:00
7:35 AM,35.6,24.8,65,29.92,10.0,SE,8.1,-,N/A,,Overcast,130,2013-01-23 15:35:00
7:55 AM,35.6,24.8,65,29.91,10.0,SSE,5.8,-,N/A,,Overcast,150,2013-01-23 15:55:00
8:15 AM,35.6,24.8,65,29.91,10.0,SE,10.4,-,N/A,,Overcast,140,2013-01-23 16:15:00
8:35 AM,35.6,23.0,60,29.93,10.0,SE,10.4,-,N/A,,Overcast,140,2013-01-23 16:35:00
8:55 AM,35.6,23.0,60,29.93,10.0,SSE,4.6,-,N/A,,Overcast,150,2013-01-23 16:55:00
9:15 AM,35.6,23.0,60,29.93,10.0,SE,4.6,-,N/A,,Overcast,140,2013-01-23 17:15:00
9:35 AM,35.6,24.8,65,29.93,10.0,SE,8.1,-,N/A,,Overcast,140,2013-01-23 17:35:00
9:55 AM,35.6,24.8,65,29.94,10.0,SSE,9.2,-,N/A,,Overcast,150,2013-01-23 17:55:00
10:15 AM,35.6,24.8,65,29.93,10.0,SE,8.1,-,N/A,,Overcast,140,2013-01-23 18:15:00
10:35 AM,35.6,23.0,60,29.93,10.0,SE,10.4,16.1,N/A,,Overcast,140,2013-01-23 18:35:00
10:55 AM,35.6,23.0,60,29.93,10.0,SE,9.2,16.1,N/A,,Overcast,140,2013-01-23 18:55:00
11:15 AM,35.6,24.8,65,29.93,10.0,SE,13.8,19.6,N/A,,Overcast,140,2013-01-23 19:15:00
11:35 AM,35.6,24.8,65,29.93,10.0,SE,11.5,16.1,N/A,,Overcast,140,2013-01-23 19:35:00
11:55 AM,35.6,24.8,65,29.93,10.0,SE,16.1,23.0,N/A,,Overcast,140,2013-01-23 19:55:00
12:15 PM,35.6,26.6,70,29.93,8.0,SE,18.4,24.2,N/A,,Overcast,140,2013-01-23 20:15:00
12:35 PM,35.6,26.6,70,29.93,6.0,SE,13.8,20.7,0.01,,Overcast,130,2013-01-23 20:35:00
1:15 PM,35.6,28.4,75,29.91,6.0,SE,12.7,19.6,0.01,,Overcast,140,2013-01-23 21:15:00
1:35 PM,33.8,28.4,81,29.91,5.0,SE,10.4,20.7,0.01,,Overcast,140,2013-01-23 21:35:00
1:55 PM,33.8,28.4,81,29.93,5.0,SE,9.2,-,0.02,,Overcast,140,2013-01-23 21:55:00
2:15 PM,33.8,28.4,81,29.95,4.0,SE,6.9,-,N/A,,Overcast,140,2013-01-23 22:15:00
2:35 PM,33.8,28.4,81,29.95,5.0,SE,12.7,-,N/A,,Overcast,140,2013-01-23 22:35:00
2:55 PM,33.8,28.4,81,29.96,4.0,SE,11.5,17.3,0.01,,Overcast,130,2013-01-23 22:55:00
3:15 PM,33.8,30.2,87,29.98,3.0,SE,13.8,-,N/A,,Overcast,140,2013-01-23 23:15:00
3:35 PM,33.8,30.2,87,30.00,4.0,SE,12.7,18.4,0.01,,Overcast,140,2013-01-23 23:35:00
3:55 PM,35.6,30.2,81,30.01,5.0,SE,10.4,-,0.01,,Overcast,140,2013-01-23 23:55:00
4:15 PM,35.6,30.2,81,30.02,5.0,SSE,10.4,-,0.01,,Overcast,150,2013-01-24 00:15:00
4:35 PM,35.6,30.2,81,30.03,5.0,SE,9.2,-,0.01,,Overcast,140,2013-01-24 00:35:00
4:55 PM,35.6,30.2,81,30.03,5.0,SE,10.4,-,0.01,,Overcast,140,2013-01-24 00:55:00
5:15 PM,35.6,30.2,81,30.04,5.0,SE,10.4,17.3,N/A,,Overcast,130,2013-01-24 01:15:00
5:35 PM,35.6,30.2,81,30.04,6.0,SE,9.2,-,N/A,,Overcast,140,2013-01-24 01:35:00
5:55 PM,35.6,30.2,81,30.05,7.0,SE,10.4,-,N/A,,Overcast,140,2013-01-24 01:55:00
6:15 PM,35.6,30.2,81,30.06,7.0,SE,12.7,-,N/A,,Overcast,140,2013-01-24 02:15:00
6:35 PM,35.6,30.2,81,30.07,6.0,SE,12.7,-,N/A,,Overcast,130,2013-01-24 02:35:00
6:55 PM,35.6,30.2,81,30.07,7.0,SE,10.4,-,N/A,,Overcast,140,2013-01-24 02:55:00
7:15 PM,35.6,30.2,81,30.09,7.0,SSE,10.4,16.1,N/A,,Overcast,150,2013-01-24 03:15:00
7:35 PM,35.6,30.2,81,30.10,6.0,SE,11.5,18.4,N/A,,Overcast,140,2013-01-24 03:35:00
7:55 PM,33.8,30.2,87,30.11,6.0,SE,10.4,17.3,N/A,,Overcast,140,2013-01-24 03:55:00
8:15 PM,33.8,30.2,87,30.13,5.0,SE,9.2,-,N/A,,Overcast,130,2013-01-24 04:15:00
8:35 PM,35.6,30.2,81,30.14,5.0,SSE,11.5,16.1,N/A,,Overcast,150,2013-01-24 04:35:00
8:55 PM,35.6,30.2,81,30.15,6.0,SE,10.4,18.4,N/A,,Overcast,140,2013-01-24 04:55:00
9:15 PM,35.6,30.2,81,30.16,5.0,SE,9.2,-,N/A,,Overcast,140,2013-01-24 05:15:00
9:35 PM,33.8,30.2,87,30.17,5.0,SE,9.2,16.1,N/A,,Overcast,140,2013-01-24 05:35:00
9:55 PM,35.6,30.2,81,30.17,5.0,SE,8.1,-,N/A,,Overcast,140,2013-01-24 05:55:00
10:15 PM,35.6,30.2,81,30.18,5.0,SE,9.2,-,N/A,,Overcast,140,2013-01-24 06:15:00
10:35 PM,35.6,30.2,81,30.19,5.0,SE,9.2,-,N/A,,Overcast,140,2013-01-24 06:35:00
10:55 PM,35.6,32.0,87,30.20,4.0,SE,9.2,-,N/A,,Overcast,130,2013-01-24 06:55:00
11:15 PM,35.6,32.0,87,30.21,5.0,SE,9.2,-,N/A,,Overcast,130,2013-01-24 07:15:00
11:35 PM,35.6,32.0,87,30.21,6.0,SE,9.2,-,N/A,,Overcast,140,2013-01-24 07:35:00
11:55 PM,35.6,32.0,87,30.21,5.0,SE,10.4,-,N/A,,Overcast,140,2013-01-24 07:55:00